Weather in Logashkino

Russia / Sakha (Yakutia) Republic     70°47′39″N   153°54′36″E
temp.,
°C
wind,
m/s
gust,
m/s
humid.,
%
clouds,
%
prec.,
mm/h
press.,
hPa
HPBL,
m
12 may, wed
wed1223:00−7nne2297100 0.1 102117
02:00−9nne229873 0.1 102110
05:00−9nne229882 0.1 102119
08:00−6nne229661 0.1 102082
11:00−5ne129310 0.1 1020139
14:00−4ene128930 0.0 1019216
17:00−5s009428 0.0 101810
20:00−9w119724 0.0 101810
13 may, thu
thu1323:00−13sw1110077 0.0 10189
02:00−14sw1110097 0.0 10179
05:00−14wsw1110097 0.1 101612
08:00−9wsw119689 0.1 101643
11:00−7wsw119273 0.1 1015128
14:00−5w119074 0.0 1015201
17:00−5wsw119459 0.1 101472
20:00−8wsw229796 0.0 101543
14 may, fri
fri1423:00−9wsw2297100 0.1 101532
02:00−11wsw229999 0.1 101527
05:00−11wsw229997 0.1 101645
08:00−11wsw229764 0.0 101747
11:00−8sw229328 0.0 1017119
14:00−6ssw239056 0.0 1017190
17:00−6ssw239387 0.0 1018111
20:00−7s339464 0.0 101842
15 may, sat
sat1523:00−10s339684 0.0 101831
02:00−11s339646 0.0 101936
05:00−11s349643 0.0 101842
08:00−7sse359528 0.0 1019101
11:00−4sse469330 0.0 1018184
14:00−3sse46915 0.0 1018215
17:00−4sse47915 0.0 1018166
20:00−6se47905 0.0 101887
16 may, sun
sun1623:00−9sse469150 0.0 101862
02:00−10se47887 0.0 101868
05:00−9se48895 0.0 101794
08:00−6se49895 0.0 1017149
11:00−3se59895 0.0 1017211
14:00−1ese58915 0.0 1016249
17:000ese48915 0.0 1016198
20:00−2ese48915 0.0 1015113